Fulton, NY
on Thursday, December 7, 2017

Thursday
       
Previous Day Next Day
Daily Summary
 ActualAverage (KSYR)Record (KSYR)
Temperature
Mean Temperature °F °C °F °C  
Max Temperature 35°F 2°C 38°F 3°C 70°F 21°C (1998)
Min Temperature 28°F -2°C 23°F -5°C 2°F -16°C (1906)
Degree Days
Heating Degree Days 34    
Moisture
Dew Point 23°F -5°C   
Average Humidity 67    
Maximum Humidity 79    
Minimum Humidity 54    
Precipitation
Precipitation 0.01 in / 0.25 cm in / cm in / cm ()
Wind
Wind Speed 11 mph / 18 km/h   
Max Wind Speed 18 mph / 29 km/h   
Max Gust Speed 25 mph / 40 km/h   
Visibility 9 miles / 14 kilometers   
Events Snow   
Averages and records for this station are not official NWS values.
Key: T is trace of precipitation, MM is missing value
Source: NWS Daily Summary
Seasonal Weather Averages
Time(EST)TemperatureDew PointHumidity Pressure Visibility Wind DirectionWind SpeedGust SpeedPrecipitationEvents Conditions
12:54 AM 35.1°F 1.7°C 21.0°F -6.1°C 57% 29.88 in / 1011.7 hPa 10.0 miles / 16.1 kilometers WSW 11.5 mph / 18.5 km/h 19.6 mph / 31.5 km/h N/A   Mostly Cloudy
1:54 AM 34.0°F 1.1°C 21.0°F -6.1°C 59% 29.90 in / 1012.3 hPa 10.0 miles / 16.1 kilometers WSW 9.2 mph / 14.8 km/h - N/A   Overcast
2:54 AM 35.1°F 1.7°C 21.0°F -6.1°C 57% 29.91 in / 1012.7 hPa 10.0 miles / 16.1 kilometers WSW 11.5 mph / 18.5 km/h - N/A   Overcast
3:54 AM 35.1°F 1.7°C 19.9°F -6.7°C 54% 29.90 in / 1012.4 hPa 10.0 miles / 16.1 kilometers WSW 12.7 mph / 20.4 km/h - N/A   Overcast
4:54 AM 35.1°F 1.7°C 19.9°F -6.7°C 54% 29.90 in / 1012.4 hPa 10.0 miles / 16.1 kilometers WSW 12.7 mph / 20.4 km/h - N/A   Overcast
5:54 AM 35.1°F 1.7°C 21.0°F -6.1°C 57% 29.92 in / 1013.1 hPa 10.0 miles / 16.1 kilometers West 8.1 mph / 13.0 km/h - N/A   Overcast
6:12 AM 32.0°F 0.0°C 25.0°F -3.9°C 75% 29.91 in / 1012.8 hPa 1.8 miles / 2.8 kilometers West 10.4 mph / 16.7 km/h - 0.00 in / 0.0 cm Snow Light Snow
6:17 AM 32.0°F 0.0°C 26.1°F -3.3°C 79% 29.91 in / 1012.8 hPa 2.0 miles / 3.2 kilometers WSW 8.1 mph / 13.0 km/h - 0.00 in / 0.0 cm Snow Light Snow
6:26 AM 32.0°F 0.0°C 25.0°F -3.9°C 75% 29.91 in / 1012.8 hPa 5.0 miles / 8.0 kilometers WSW 5.8 mph / 9.3 km/h - 0.01 in / 0.3 cm Snow Light Snow
6:45 AM 33.1°F 0.6°C 25.0°F -3.9°C 72% 29.91 in / 1012.8 hPa 7.0 miles / 11.3 kilometers SW 9.2 mph / 14.8 km/h - 0.01 in / 0.3 cm Snow Light Snow
6:54 AM 33.1°F 0.6°C 25.0°F -3.9°C 72% 29.93 in / 1013.3 hPa 9.0 miles / 14.5 kilometers SW 9.2 mph / 14.8 km/h - 0.01 in / 0.3 cm Snow Light Snow
7:12 AM 32.0°F 0.0°C 25.0°F -3.9°C 75% 29.91 in / 1012.8 hPa 2.5 miles / 4.0 kilometers West 9.2 mph / 14.8 km/h - 0.00 in / 0.0 cm Snow Light Snow
7:23 AM 32.0°F 0.0°C 26.1°F -3.3°C 79% 29.91 in / 1012.8 hPa 6.0 miles / 9.7 kilometers West 6.9 mph / 11.1 km/h - 0.00 in / 0.0 cm Snow Light Snow
7:46 AM 32.0°F 0.0°C 25.0°F -3.9°C 75% 29.91 in / 1012.8 hPa 10.0 miles / 16.1 kilometers West 3.5 mph / 5.6 km/h - 0.00 in / 0.0 cm   Overcast
7:54 AM 32.0°F 0.0°C 25.0°F -3.9°C 75% 29.92 in / 1013.2 hPa 10.0 miles / 16.1 kilometers Calm Calm - 0.00 in / 0.0 cm   Overcast
8:54 AM 34.0°F 1.1°C 21.9°F -5.6°C 61% 29.93 in / 1013.4 hPa 10.0 miles / 16.1 kilometers SW 10.4 mph / 16.7 km/h - N/A   Overcast
9:54 AM 35.1°F 1.7°C 23.0°F -5.0°C 61% 29.93 in / 1013.5 hPa 10.0 miles / 16.1 kilometers SW 13.8 mph / 22.2 km/h - N/A   Overcast
10:54 AM 35.1°F 1.7°C 25.0°F -3.9°C 67% 29.94 in / 1013.7 hPa 10.0 miles / 16.1 kilometers SW 18.4 mph / 29.6 km/h 25.3 mph / 40.7 km/h N/A   Overcast
11:54 AM 35.1°F 1.7°C 28.0°F -2.2°C 76% 29.92 in / 1013.1 hPa 10.0 miles / 16.1 kilometers SSW 12.7 mph / 20.4 km/h - N/A   Overcast
12:54 PM 35.1°F 1.7°C 26.1°F -3.3°C 70% 29.90 in / 1012.5 hPa 10.0 miles / 16.1 kilometers SW 15.0 mph / 24.1 km/h 21.9 mph / 35.2 km/h N/A   Overcast
1:54 PM 35.1°F 1.7°C 24.1°F -4.4°C 64% 29.89 in / 1012.2 hPa 10.0 miles / 16.1 kilometers SW 15.0 mph / 24.1 km/h - N/A   Overcast
2:54 PM 34.0°F 1.1°C 23.0°F -5.0°C 64% 29.89 in / 1012.0 hPa 10.0 miles / 16.1 kilometers SW 15.0 mph / 24.1 km/h - N/A   Overcast
3:54 PM 34.0°F 1.1°C 21.9°F -5.6°C 61% 29.89 in / 1012.1 hPa 10.0 miles / 16.1 kilometers WSW 11.5 mph / 18.5 km/h - N/A   Overcast
4:54 PM 32.0°F 0.0°C 23.0°F -5.0°C 69% 29.91 in / 1012.6 hPa 10.0 miles / 16.1 kilometers SW 9.2 mph / 14.8 km/h - N/A   Overcast
5:54 PM 30.9°F -0.6°C 24.1°F -4.4°C 76% 29.92 in / 1013.1 hPa 10.0 miles / 16.1 kilometers SW 6.9 mph / 11.1 km/h - N/A   Overcast
6:54 PM 30.9°F -0.6°C 23.0°F -5.0°C 72% 29.94 in / 1013.6 hPa 10.0 miles / 16.1 kilometers WSW 11.5 mph / 18.5 km/h - N/A   Overcast
7:54 PM 30.9°F -0.6°C 21.0°F -6.1°C 67% 29.94 in / 1013.8 hPa 10.0 miles / 16.1 kilometers WSW 12.7 mph / 20.4 km/h - N/A   Overcast
8:54 PM 30.9°F -0.6°C 19.0°F -7.2°C 61% 29.95 in / 1014.1 hPa 10.0 miles / 16.1 kilometers WSW 13.8 mph / 22.2 km/h - N/A   Overcast
9:54 PM 30.9°F -0.6°C 17.1°F -8.3°C 57% 29.96 in / 1014.4 hPa 10.0 miles / 16.1 kilometers WSW 15.0 mph / 24.1 km/h 20.7 mph / 33.3 km/h N/A   Overcast
10:54 PM 28.9°F -1.7°C 18.0°F -7.8°C 64% 29.96 in / 1014.6 hPa 10.0 miles / 16.1 kilometers WSW 12.7 mph / 20.4 km/h 19.6 mph / 31.5 km/h N/A   Clear
11:54 PM 28.9°F -1.7°C 18.0°F -7.8°C 64% 29.96 in / 1014.6 hPa 10.0 miles / 16.1 kilometers WSW 9.2 mph / 14.8 km/h - N/A   Partly Cloudy